Regional Weather Roundup
Issued by NWS

Home | Current Version | Previous Version | Graphics & Text | Print | Product List | Glossary On
Versions: 1 2 3 4 5 6 7 8 9 10 11 12 13 14 15 16 17 18 19 20 21 22 23 24 25 26 27 28 29 30 31 32 33 34 35 36 37 38 39 40 41 42 43 44 45 46 47 48 49 50
000
ASUS43 KMPX 290710
RWRMN
WEATHER ROUNDUP FOR MINNESOTA
NATIONAL WEATHER SERVICE TWIN CITIES/CHANHASSEN MN
200 AM CDT SAT APR 29 2017


NOTE: "FAIR" INDICATES FEW OR NO CLOUDS BELOW 12,000 FEET WITH NO
SIGNIFICANT WEATHER AND/OR OBSTRUCTIONS TO VISIBILITY. N/A MEANS
CURRENT SKY AND/OR WEATHER CONDITIONS ARE NOT AVAILABLE.

MNZ060>063-068>070-290800-
   Twin Cities Metro

CITY           SKY/WX    TMP DP  RH WIND       PRES   REMARKS
TWIN CITIES    CLOUDY    43  27  53 NE9       30.18R
ST PAUL        PTCLDY    42  29  59 NE5       30.19R
CRYSTAL        CLOUDY    41  25  53 NE9       30.17R
LAKEVILLE      PTCLDY    39  28  65 NE9       30.16R
EDEN PRAIRIE   CLOUDY    44  26  49 NE8       30.17R
SOUTH ST PAUL  CLOUDY    43  28  54 NE9G17    30.17R
LAKE ELMO      FAIR      37  32  81 NE3       30.18R
$$
MNZ001>005-007-008-013>017-022>024-027-028-290800-
   Northwest Minnesota

CITY           SKY/WX    TMP DP  RH WIND       PRES   REMARKS
BEMIDJI        PTCLDY    26  19  75 CALM      30.19S
HALLOCK        CLEAR     28  23  80 E3        30.23R
ROSEAU         CLEAR     32  16  51 CALM      30.22R
WARROAD        CLEAR     30  16  55 NW3       30.22R
THIEF RVR FALL CLEAR     31  21  66 CALM      30.23R
CROOKSTON      CLEAR     34  27  75 CALM      30.22F
FOSSTON        CLEAR     25  18  74 N3        30.21S
DETROIT LAKES  CLEAR     34  30  86 CALM      30.21R
MOORHEAD       CLEAR     32  27  80 CALM      30.23R
PARK RAPIDS    CLEAR     32  20  61 CALM      30.19S
MAHNOMEN       FAIR      32  25  77 CALM      30.21R
$$
MNZ006-009>011-018-025>026-290800-
   North Central Minnesota

CITY           SKY/WX    TMP DP  RH WIND       PRES   REMARKS
BAUDETTE       CLEAR     28  21  75 CALM      30.20
FLAG ISLAND    CLEAR     36  25  64 CALM      30.20R
INTL FALLS     CLEAR     25  21  85 CALM      30.20R
WASKISH        CLEAR     27  25  93 CALM      30.21R
BIG FORK       CLEAR     25  23  93 CALM      30.20R
LONGVILLE      CLEAR     28  27  93 CALM      30.20R
GRAND RAPIDS   CLEAR     27  23  85 S3        30.21R
CRANE LAKE     CLEAR     21  19  93 CALM      30.21R
ORR            CLEAR     28  19  69 CALM      30.17R
COOK           CLEAR     25  23  93 CALM      30.20R
WALKER         FAIR      28  22  78 CALM      30.20R
$$
MNZ012-019>021-037-290800-
   Northeast Minnesota

CITY           SKY/WX    TMP DP  RH WIND       PRES   REMARKS
DULUTH         CLEAR     31  25  78 N3        30.19R
ELY            CLEAR     25  21  86 CALM      30.19R
HIBBING        CLEAR     23  21  92 CALM      30.20R
EVELETH        CLEAR     25  22  91 CALM      30.20R
DULUTH HARBOR  CLEAR     37  32  81 CALM      30.22R
TWO HARBORS    CLEAR     34  27  75 NW5       30.19R WCI  30
SILVER BAY     CLEAR     28  27  93 CALM      30.18R
GRAND MARAIS     N/A     32  27  81 NW6       30.18R WCI  26
G MARAIS ARPRT CLEAR     27  19  74 CALM      30.15R
$$
MNZ029>031-032-039>041-046>048-054>057-064-290800-
   West Central Minnesota

CITY           SKY/WX    TMP DP  RH WIND       PRES   REMARKS
FERGUS FALLS   CLEAR     36  25  64 CALM      30.21R
WHEATON        CLEAR     32  25  74 CALM      30.22S
MORRIS         CLEAR     30  25  80 N9        30.17F WCI  22
ALEXANDRIA     CLEAR     37  21  52 NE7       30.19S
ELBOW LAKE     FAIR      38  24  58 E3        30.20S
WADENA         CLEAR     28  21  74 CALM      30.20R
GLENWOOD       CLEAR     37  21  52 N10       30.17F
APPLETON       CLEAR     32  23  69 N6        30.20R WCI  26
BENSON         CLEAR     36  19  51 NE3       30.20R
ORTONVILLE     CLEAR     36  25  64 NE5       30.20R
MADISON        CLOUDY    36  27  69 CALM      30.21R
WILLMAR        FAIR      36  27  69 NE6       30.19R
$$
MNZ033>034-036-042>043-049>051-058-059-290800-
   Central Minnesota

CITY           SKY/WX    TMP DP  RH WIND       PRES   REMARKS
ST CLOUD       CLEAR     39  25  57 NE6       30.18S
SAUK CENTRE    FAIR      34  21  59 N7        30.18F WCI  28
PAYNESVILLE    CLEAR     34  24  68 NE5       30.18S WCI  30
AITKIN         PTCLDY    30  25  80 CALM      30.20R
PINE RIVER     CLEAR     27  21  80 CALM      30.23R
BRAINERD       PTCLDY    31  25  78 CALM      30.21R
STAPLES        CLEAR     28  21  74 CALM      30.20R
LONG PRAIRIE   FAIR      32  27  80 NW5       30.20S WCI  27
LITTLE FALLS   CLEAR     30  23  74 CALM      30.21R
LITCHFIELD     PTCLDY    39  27  60 NE6       30.17R
BUFFALO        CLOUDY    40  26  58 NE10      30.18S
MAPLE LAKE     CLOUDY    41  28  60 NE9       30.18F
HUTCHINSON     CLEAR     41  28  60 NE8       30.18R
$$
MNZ037-044-045-052-053-290800-
   East Central Minnesota

CITY           SKY/WX    TMP DP  RH WIND       PRES   REMARKS
PRINCETON      CLEAR     39  27  60 NE6       30.19F
MORA           CLEAR     34  25  69 NE3       30.23R
CAMBRIDGE      CLEAR     39  27  60 CALM      30.18S
RUSH CITY      CLEAR     37  26  66 NE9       30.21S
MOOSE LAKE     CLEAR     30  27  86 CALM      30.21R
HINCKLEY       FAIR      32  28  86 CALM      30.22R
CLOQUET        CLEAR     28  23  80 CALM      30.20R
MCGREGOR       PTCLDY    32  27  80 CALM      30.21R
$$
MNZ071>073-080-081-089-090-097-098-290800-
   Southwest Minnesota

CITY           SKY/WX    TMP DP  RH WIND       PRES   REMARKS
MONTEVIDEO     CLOUDY    36  23  60 E3        30.21R
GRANITE FALLS  CLOUDY    37  27  65 N8        30.21R
CANBY          CLOUDY    32  27  79 CALM      30.22R
MARSHALL       PTCLDY    31  25  78 NW7       30.21R WCI  24
REDWOOD FALLS  CLOUDY    38  24  57 CALM      30.17R
OLIVIA         PTCLDY    36  28  75 N3        30.16S
PIPESTONE      CLOUDY    37  21  52 NE7       30.18R
WINDOM         CLOUDY    36  27  69 N7        30.18R
WORTHINGTON    CLOUDY    33  26  75 NW7       30.18R WCI  27
JACKSON        CLOUDY    32  28  86 CALM      30.19R
TRACY          CLOUDY    37  28  67 N9        30.19R
SLAYTON        MOCLDY    32  26  77 NW7       30.20R WCI  26
$$
MNZ065>067-074>077-082>085-091>093-290800-
   South Central Minnesota

CITY           SKY/WX    TMP DP  RH WIND       PRES   REMARKS
MANKATO        PTCLDY    39  29  67 NE5       30.14S
NEW ULM        CLOUDY    37  27  65 CALM      30.16S
ST JAMES       MOCLDY    36  30  80 W6        30.19R
FAIRMONT       CLOUDY    37  31  78 NW5       30.18R
GLENCOE        CLOUDY    42  29  60 NE7       30.15S
FARIBAULT      PTCLDY    34  30  86 CALM      30.15S
OWATONNA       CLOUDY    34  30  86 CALM      30.13F
WASECA         CLOUDY    34  32  93 NE3       30.14F
ALBERT LEA     PTCLDY    36  28  75 NE7       30.10F
$$
MNZ078>079-086>088-094>096-290800-
   Southeast Minnesota

CITY           SKY/WX    TMP DP  RH WIND       PRES   REMARKS
ROCHESTER      PTCLDY    37  31  78 N6        30.15R
RED WING       CLOUDY    36  28  75 CALM      30.17R
STANTON        PTCLDY    33  31  92 CALM      30.15R
DODGE CENTER   MOCLDY    36  30  80 CALM      30.14S
WINONA         MOCLDY    37  34  87 CALM      30.15R
AUSTIN         PTCLDY    37  30  75 NE7       30.10F
PRESTON        PTCLDY    36  31  81 N7        30.13R
$$
ABBREVIATIONS USED IN REMARKS
   TC - TEMPERATURES IN CELSIUS
  WCI - WIND CHILL INDEX
   HX - HEAT INDEX
  VSB - VISIBILITY
$$



USA.gov is the U.S. government's official web portal to all federal, state and local government web resources and services.